Flag for India Weather past 2 weeks in Thiruvananthapuram, Kerala, India

Now
79 °F

Passing clouds.


Feels Like: 82 °F
Forecast: 78 / 86 °F
Wind: 7 mph from West

Location: Thiruvananthapuram

Current Time: Jul 31, 2015 at 5:21:06 AM

Latest Report: Jul 31, 2015 at 3:40 AM


Visibility: 2 mi

Pressure: 29.80 "Hg

Humidity: 84%

Dew point: 73 °F

Location of ThiruvananthapuramLocation

Historic Weather in Thiruvananthapuram — Graph

°F

Thiruvananthapuram temperature yesterday

Maximum temperature yesterday: 88 °F (at 1:10 PM)
Minimum temperature yesterday: 77 °F (at 6:10 AM)
Average temperature yesterday: 83 °F

Past Weeks' High & Low Weather Summary

 TemperatureHumidityPressure
High90 °F (Jul 16, 1:40 PM)100% (Jul 16, 5:10 PM)29.89 "Hg (Jul 16, 5:10 PM)
Low68 °F (Jul 16, 5:10 PM)59% (Jul 28, 10:40 AM)29.65 "Hg (Jul 16, 2:40 PM)
Average82 °F80%29.80 "Hg
* Reported Jul 16 3:40 AM — Jul 31 3:40 AM, Thiruvananthapuram, Weather by CustomWeather, © 2015

Note: Actual official high and low records may vary slightly from our data, if they occured in-between our weather recording intervals... More about our weather records

Advertising

Thiruvananthapuram weather history for previous 24 hours

 ConditionsComfort  
Time TempWeatherWind HumidityBarometerVisibility
3:40 AM
Fri, Jul 31
79 °FPassing clouds.7 mph84%29.80 "Hg2 mi
2:40 AM79 °FPassing clouds.6 mph84%29.80 "Hg2 mi
1:40 AM79 °FPassing clouds.6 mph84%29.80 "Hg2 mi
12:40 AM81 °FPassing clouds.9 mph79%29.83 "Hg2 mi
11:40 PM
Thu, Jul 30
81 °FPassing clouds.6 mph79%29.86 "Hg2 mi
10:40 PM81 °FPassing clouds.7 mph84%29.86 "Hg2 mi
9:10 PM82 °FHaze.7 mph79%29.86 "Hg2 mi
8:10 PM82 °FHaze.8 mph79%29.83 "Hg2 mi
7:40 PM82 °FPassing clouds.8 mph79%29.83 "Hg2 mi
7:10 PM82 °FScattered clouds.9 mph79%29.83 "Hg2 mi
6:10 PM84 °FPassing clouds.9 mph74%29.80 "Hg4 mi
5:40 PM84 °FPassing clouds.9 mph74%29.80 "Hg4 mi
5:10 PM86 °FPassing clouds.13 mph70%29.80 "Hg4 mi
4:40 PM88 °FPassing clouds.13 mph66%29.80 "Hg4 mi
4:10 PM88 °FPassing clouds.9 mph66%29.80 "Hg4 mi
3:10 PM88 °FPassing clouds.10 mph66%29.80 "Hg4 mi
2:40 PM88 °FScattered clouds.12 mph66%29.83 "Hg4 mi
2:10 PM88 °FPassing clouds.12 mph66%29.83 "Hg4 mi
1:40 PM88 °FScattered clouds.8 mph66%29.83 "Hg4 mi
1:10 PM88 °FScattered clouds.14 mph66%29.83 "Hg4 mi
12:10 PM86 °FPassing clouds.8 mph75%29.86 "Hg4 mi
11:40 AM86 °FHaze.10 mph75%29.86 "Hg3 mi
11:10 AM86 °FHaze.10 mph70%29.89 "Hg3 mi
10:10 AM84 °FScattered clouds.8 mph74%29.89 "Hg2 mi
9:40 AM82 °FScattered clouds.7 mph74%29.89 "Hg2 mi
9:10 AM81 °FBroken clouds.7 mph79%29.89 "Hg2 mi
8:10 AM79 °FScattered clouds.7 mph84%29.86 "Hg2 mi
6:10 AM77 °FFog.6 mph89%29.83 "Hg1 mi
Weather by CustomWeather, © 2015

See weather overviewHow to use our weather pages